Regional Weather Roundup
Issued by NWS Grand Forks, ND

Home | Current Version | Previous Version | Graphics & Text | Print | Product List | Glossary On
Versions: 1 2 3 4 5 6 7 8 9 10 11 12 13 14 15 16 17 18 19 20 21 22 23 24 25 26 27 28 29 30 31 32 33 34 35 36 37 38 39 40 41 42 43 44 45 46 47 48 49 50
000
ASUS43 KFGF 231031
RWRFGF
PRAIRIE TO PINES  WEATHER ROUNDUP
NATIONAL WEATHER SERVICE EASTERN NORTH DAKOTA/GRAND FORKS ND
500 AM CDT WED MAY 23 2018

 **SATELLITE DATA USED TO AUGMENT SKY COVER AT AUTOMATED STATIONS**
 *****  WEATHER ACROSS EASTERN NORTH DAKOTA  *****

CITY           SKY/WX    TMP DP  RH WIND       PRES   REMARKS
GRAND FORKS    FAIR      59  55  87 S3        29.99R
GRAND FRKS AFB MOCLDY    62  57  85 S7        29.99S
GRAND FRKS NWS   N/A     62  55  77 S5        29.99R
DEVILS LAKE    FAIR      62  55  77 E9        30.00R
FARGO          FAIR      64  56  75 SE9       30.01R
WAHPETON ARPT  FAIR      63  54  72 SE8       30.02R
$$

 ***** WEATHER ACROSS CENTRAL AND WESTERN NORTH DAKOTA  *****

CITY           SKY/WX    TMP DP  RH WIND       PRES   REMARKS
BISMARCK       FAIR      60  58  92 E7        29.95R
MINOT          FAIR      56  51  84 N5        29.92F
JAMESTOWN      FAIR      60  56  86 SE6       29.99R
MINOT AFB      FAIR      56  50  81 CALM      29.92R
GARRISON         N/A     55  51  86 CALM      29.94R
WILLISTON      FAIR      59  52  77 NE6       29.91F
DICKINSON      FAIR      58  55  90 SE12      29.91R
HETTINGER      FAIR      59  55  87 E14       29.93F
$$

 *****  OTHER AIRPORT OBSERVATIONS IN OUR AREA  *****

CITY           SKY/WX    TMP DP  RH WIND       PRES   REMARKS
WALHALLA       FAIR      61  61 100 SE6       29.99S
GRAFTON AIRPOR FAIR      55  55 100 E8        30.02R
VALLEY CITY AR CLOUDY    63  63 100 SE9       30.03R
CANDO          FAIR      57  57 100 E6        30.01R
CAVALIER APRT    N/A     57  54  88 S5        30.00R
GWINNER          N/A     61  57  88 E6        29.99S
SHEYENNE NWR     N/A     59  56  91 SE5       29.95
ROLLA          FAIR      57  57 100 S3        30.00R
 ***** THE ABOVE OBSERVATIONS ARE NON NWS ARE NOT QUALITY
       CONTROLLED AND MAY MIS-REPORT RAIN FOR SNOW...
$$

  *****  WEATHER ACROSS NORTHERN MINNESOTA  *****

CITY           SKY/WX    TMP DP  RH WIND       PRES   REMARKS
FLAG ISLAND    FAIR      57  54  88 CALM      30.03S
WARROAD        FAIR      54  50  87 CALM      30.05R
ROSEAU         FAIR      55  50  82 CALM      30.04R
HALLOCK        FAIR      61  55  82 SE8       30.00S
THF RVR FALLS  FAIR      59  54  83 SE7       30.03S
BAUDETTE       FAIR      53  52  96 SE3       30.04F
WASKISH          N/A     48  48 100 CALM      30.07R
CROOKSTON      FAIR      59  55  88 SE9       30.02R
STEPHEN NDAWN    N/A     57  54  88 SE5         N/A
GREENBUSH NDAW   N/A     55  52  88 SE2         N/A
$$
  *****  WEATHER ACROSS CENTRAL AND WEST MINNESOTA  *****

CITY           SKY/WX    TMP DP  RH WIND       PRES   REMARKS
FOSSTON        FAIR      54  48  82 CALM      30.05S
BEMIDJI        FAIR      50  50  99 CALM      30.07R FOG
PARK RAPIDS    FAIR      54  52  93 SE3       30.07R
ELBOW LAKE     PTSUNNY   64  57  79 SE9       30.04R
WADENA         FAIR      54  54 100 E3        30.07R
DETROIT LAKES  FAIR      59  54  82 SE8       30.08R
MOORHEAD       FAIR      64  55  72 SE6       30.03R
FERGUS FALLS   FAIR      64  55  72 SE10      30.00R
MORRIS MN      FAIR      63  57  82 SE9       30.02S
STAPLES        FAIR      54  54 100 E5        30.08R
$$
  *****  WEATHER ELSEWHERE ACROSS MINNESOTA  *****

CITY           SKY/WX    TMP DP  RH WIND       PRES   REMARKS
DULUTH         FAIR      52  50  93 CALM      30.11R
INTRNTL FALLS  FAIR      45  45 100 CALM      30.06S
ELY            FAIR      48  48 100 CALM      30.09S
CLOQUET        FAIR      48  45  87 CALM      30.10R FOG
WHEATON        FAIR      63  55  77 SE10      30.02S
BRAINERD       FAIR      53  50  89 CALM      30.09R
HIBBING        FAIR      43  43 100 CALM      30.08R FOG
ALEXANDRIA     FAIR      62  56  80 SE9       30.07R
SAINT CLOUD    FAIR      59  56  89 SE5       30.07S
MINNEAPOLIS    MOCLDY    63  59  87 SE8       30.09S
$$

  *****  WEATHER ACROSS SOUTH DAKOTA  *****

CITY           SKY/WX    TMP DP  RH WIND       PRES   REMARKS
SIOUX FALLS    FAIR      64  62  93 E6        29.99R
BROOKINGS      CLOUDY    65  62  90 SE18      29.99F
WATERTOWN      TSTM      65  63  93 SE10G21   29.97F
HURON          FAIR      65  63  93 E7        29.94F
SISSETON         N/A     61  57  87 SE3       29.99S
ABERDEEN       CLOUDY    65  60  84 S6        29.99R
MITCHELL       FAIR      63  62  97 N6        29.94R FOG
PIERRE         FAIR      63  62  97 NE8       29.88R
MOBRIDGE       FAIR      66  60  81 S7        29.93F
RAPID CITY     FAIR      55  54  96 W3        29.88R
$$

  *****  SOME WEATHER IN NEARBY STATES *****

CITY           SKY/WX    TMP DP  RH WIND       PRES   REMARKS
GLASGOW MT     FAIR      55  48  77 NE5       29.90F
GREAT FALLS MT CLOUDY    51  46  83 W3        29.94F
CHEYENNE WY    FAIR      48  43  82 W14       30.01F
SCOTTSBLUFF NE FAIR      53  53 100 NW7       29.94R
OMAHA NE       FAIR      68  62  81 S5        30.01R
DES MOINES IA  FAIR      68  62  81 E6        30.06R
DAVENPORT IA   FAIR      58  57  97 E5        30.15R FOG
CHICAGO IL     MOCLDY    52  50  93 CALM      30.14R
EAU CLAIRE WI  FOG       48  48 100 CALM      30.12S VSB 1/4
LA CROSSE WI   FAIR      55  53  93 SE3       30.12R
$$

  *****  SOME NATIONAL WEATHER *****

CITY           SKY/WX    TMP DP  RH WIND       PRES   REMARKS
LA GUARDIA NY  MOCLDY    61  58  90 CALM      29.89F FOG
RALEIGH NC     MOCLDY    69  67  93 SW8       30.04S
ATLANTA GA     RAIN      70  67  90 E3        30.05S FOG
NEW ORLEANS LA FAIR      74  73  97 CALM      30.00S
OKLAHOMA CITY  FAIR      67  66  97 S5        30.01R
ALBUQUERQUE NM FAIR      59  27  29 CALM      30.03R
SALT LAKE CITY PTCLDY    55  46  71 SE6       29.93R
LOS ANGELES CA CLOUDY    60  54  80 W8        29.93S
BOISE ID       FAIR      61  49  64 SE9       29.83S
SEATTLE WA     FAIR      58  48  69 NW7       29.82S
$$

*** WEATHER ACROSS MANITOBA...SASKATCHEWAN AND ONTARIO ***
                ***ONTARIO***

CITY           SKY/WX    TMP DP  RH WIND       PRES   REMARKS
GERALDTON      PTCLDY    39  34  81 E8        30.13R
THUNDER BAY    MOCLDY    41  37  87 NE7       30.07R
SIOUX LOOKOUT  CLOUDY    43  43 100 VRB2      30.07R
TORONTO        PTCLDY    50  48  93 W6        30.01R
BIG TROUT LK   CLEAR     30  28  93 SE5       30.14S
PICKLE LAKE    NOT AVBL
DRYDEN         CLEAR     57  48  72 S5        30.06R
KENORA         PTCLDY    61  46  59 S5        30.05F
$$
                *** MANITOBA***

CITY           SKY/WX    TMP DP  RH WIND       PRES   REMARKS
BRANDON        PTCLDY    54  46  76 E8        29.97S
DAUPHIN        CLEAR     48  45  87 W7        29.97S
ISLAND LAKE    PTCLDY    43  36  75 SE6       30.06S
PILOT MOUND      N/A     55  50  82 SE7         N/A
THE PAS        CLEAR     46  43  87 SE2       29.99F
THOMPSON       PTCLDY    37  32  81 SW3       30.01F
WINNIPEG       PTCLDY    59  52  77 S8        30.00S
LYNN LAKE      CLEAR     52  43  71 SW7       29.93S
CHURCHILL      MOCLDY    30  27  86 S21       29.93F WCI  17
GILLAM         MOCLDY    39  28  65 S10       30.02F
$$
                ***SASKATCHEWAN***

CITY           SKY/WX    TMP DP  RH WIND       PRES   REMARKS
ESTEVAN        MOCLDY    55  50  82 E7        29.94F
KINDERSLEY     PTCLDY    54  41  62 E7        29.93S
LLOYDMINSTER   CLEAR     50  41  71 SE6       29.93R
PRINCE ALBERT  PTCLDY    46  41  81 NE2       29.97S
REGINA         PTCLDY    54  46  76 SE8       29.97R
YORKTON        CLOUDY    55  52  88 N2        29.97S
N. BATTLEFORD  CLEAR     52  45  76 E5        29.96R
LA RONGE       PTCLDY    52  46  82 S2        29.96R
SASKATOON      PTCLDY    52  45  76 SE3       29.96R
SWIFT CURRENT  CLEAR     52  43  71 S5        29.92F
$$
NOTE: THESE ARE AUTOMATED STATIONS WITH LIMITED QUALITY CONTROL
      "FAIR" INDICATES FEW OR NO CLOUDS BELOW 12,000 FEET WITH NO
      SIGNIFICANT WEATHER AND/OR OBSTRUCTIONS TO VISIBILITY.
      SKY/WX - SKY CONDITION AND SIGNIFICANT WEATHER.
      TMP - AIR TEMPERATURE.    DP   - DEWPOINT TEMPERATURE.
      RH  - RELATIVE HUMIDITY.  PRES - PRESSURE.
      HX  - HEAT INDEX.         WCI  - WIND CHILL INDEX.
$




USA.gov is the U.S. government's official web portal to all federal, state and local government web resources and services.